User: anonymous   Login
Location: Unspecified
(0.0000°N, 0.0000°E)
Time: 06:38:23
(UTC+00:00)
Language:

PAYLOAD C - Orbit

View from above orbital plane
View from above orbital plane
View from above satellite
View from above satellite

Ground track
Ground track

The orbit data is extracted from the following two-line orbital elements,

1 27842U 03031C   19081.92869799 +.00000016 +00000-0 +26951-4 0  9992
2 27842 098.6845 089.9456 0008181 257.3307 102.6957 14.22205748815943
Epoch (UTC): 22 March 2019 22:17:19
Eccentricity: 0.0008181
inclination: 98.6845°
perigee height: 812 km
apogee height: 824 km
right ascension of ascending node: 89.9456°
argument of perigee: 257.3307°
revolutions per day: 14.22205748
mean anomaly at epoch: 102.6957°
orbit number at epoch: 81594

The dashed part of the orbit path shows where the satellite is in the earth's shadow,  

DLR